Weather History for Oxford, CT

Change the Weather History Date:

Friday, June 28, 2013

  Actual Average Record
Temperature  
Mean Temperature 74 °F -  
Max Temperature 80 °F 76 °F 87 °F (1999)
Min Temperature 69 °F 58 °F 48 °F (2004)
Cooling Degree Days 10    
Growing Degree Days 24 (Base 50)    
Moisture  
Dew Point 68 °F    
Average Humidity 84    
Maximum Humidity 88    
Minimum Humidity 74    
Precipitation  
Precipitation 0.03 in - - ()
Sea Level Pressure  
Sea Level Pressure 29.58 in    
Wind  
Wind Speed 10 mph (South)    
Max Wind Speed 14 mph    
Max Gust Speed 25 mph    
Visibility 7 miles    
Events Thunderstorm    
Averages and records for this station are not official NWS values.
T = Trace of Precipitation, MM = Missing Value Source: NWS Daily Summary

Daily Weather History Graph

Daily Weather History Graph

Search for Another Location

Airport:

Trip Planner

Search our weather history database for the weather conditions in past years. The results will help you decide how hot, cold, wet, or windy it might be!

Date:

Astronomy

Jun. 28, 2013 Rise Set
Actual Time 5:21 AM EDT 8:30 PM EDT
Civil Twilight 4:47 AM EDT 9:04 PM EDT
Nautical Twilight 4:03 AM EDT 9:47 PM EDT
Astronomical Twilight 3:11 AM EDT 10:39 PM EDT
Moon 11:52 PM EDT (6/28) 11:30 AM EDT (6/28)
Length of Visible Light 16h 16m
Length of Day
15h 09m
Waning Gibbous, 66% of the Moon is Illuminated
Jun 28
Waning Gibbous
Jun 30
Last Quarter
Jul 8
New
Jul 15
First Quarter
Jul 22
Full

Hourly Weather History & Observations

Time (EDT) Temp. Heat Index Dew Point Humidity Pressure Visibility Wind Dir Wind Speed Gust Speed Precip Events Conditions
12:15 AM 69.8 °F - 66.2 °F 88% 29.65 in 7.0 mi SSE 12.7 mph - 0.02 in   Overcast
12:35 AM 69.8 °F - 66.2 °F 88% 29.64 in 7.0 mi SSE 12.7 mph 17.3 mph 0.03 in   Overcast
12:55 AM 69.8 °F - 66.2 °F 88% 29.63 in 8.0 mi SSE 11.5 mph - 0.03 in   Overcast
1:15 AM 71.6 °F - 68.0 °F 88% 29.62 in 1.2 mi SSE 13.8 mph 18.4 mph N/A   Overcast
1:35 AM 71.6 °F - 68.0 °F 88% 29.61 in 4.0 mi South 13.8 mph 25.3 mph N/A   Overcast
1:55 AM 71.6 °F - 68.0 °F 88% 29.61 in 7.0 mi South 10.4 mph 21.9 mph N/A   Overcast
2:35 AM 71.6 °F - 68.0 °F 88% 29.61 in 7.0 mi SSW 9.2 mph - N/A   Overcast
2:55 AM 71.6 °F - 68.0 °F 88% 29.61 in 6.0 mi South 12.7 mph 17.3 mph N/A   Overcast
3:15 AM 71.6 °F - 68.0 °F 88% 29.60 in 7.0 mi South 12.7 mph 24.2 mph N/A   Overcast
3:55 AM 71.6 °F - 68.0 °F 88% 29.59 in 7.0 mi South 11.5 mph - N/A   Overcast
4:15 AM 71.6 °F - 68.0 °F 88% 29.59 in 6.0 mi South 13.8 mph 19.6 mph N/A   Overcast
4:35 AM 71.6 °F - 68.0 °F 88% 29.58 in 6.0 mi South 12.7 mph 18.4 mph N/A   Overcast
4:55 AM 71.6 °F - 68.0 °F 88% 29.58 in 5.0 mi South 12.7 mph 17.3 mph N/A   Overcast
5:15 AM 71.6 °F - 68.0 °F 88% 29.57 in 6.0 mi South 10.4 mph 17.3 mph N/A   Overcast
5:35 AM 71.6 °F - 68.0 °F 88% 29.58 in 6.0 mi South 8.1 mph 16.1 mph N/A   Overcast
5:50 AM 71.6 °F - 68.0 °F 88% 29.58 in 2.0 mi SSW 11.5 mph 16.1 mph N/A   Overcast
5:55 AM 71.6 °F - 68.0 °F 88% 29.58 in 5.0 mi SSW 9.2 mph 16.1 mph N/A   Overcast
6:50 AM 71.6 °F - 66.2 °F 83% 29.59 in 2.0 mi SSW 9.2 mph - N/A   Overcast
7:50 AM 71.6 °F - 66.2 °F 83% 29.59 in 3.0 mi SSW 8.1 mph - N/A   Overcast
8:50 AM 71.6 °F - 66.2 °F 83% 29.58 in 7.0 mi SSW 8.1 mph - N/A   Mostly Cloudy
9:50 AM 73.4 °F - 68.0 °F 83% 29.56 in 7.0 mi SSW 11.5 mph - N/A   Mostly Cloudy
10:49 AM 75.2 °F - 69.8 °F 83% 29.55 in 7.0 mi SSW 9.2 mph 17.3 mph N/A   Mostly Cloudy
11:50 AM 71.6 °F - 66.2 °F 83% 29.57 in 7.0 mi SW 3.5 mph - N/A   Mostly Cloudy
12:50 PM 75.2 °F - 69.8 °F 83% 29.57 in 10.0 mi SW 4.6 mph - N/A   Scattered Clouds
1:45 PM 78.8 °F - 69.8 °F 74% 29.57 in 10.0 mi SW 5.8 mph - N/A   Mostly Cloudy
2:45 PM 78.8 °F - 69.8 °F 74% 29.56 in 10.0 mi SSW 5.8 mph 17.3 mph N/A   Mostly Cloudy
3:45 PM 80.6 °F 84.6 °F 71.6 °F 74% 29.54 in 10.0 mi SSW 6.9 mph 17.3 mph N/A   Mostly Cloudy
4:45 PM 77.0 °F - 69.8 °F 78% 29.54 in 10.0 mi SSW 6.9 mph 17.3 mph N/A   Scattered Clouds
5:15 PM 73.4 °F - 66.2 °F 78% 29.54 in 10.0 mi WNW 5.8 mph - N/A Thunderstorm Thunderstorm
5:45 PM 78.8 °F - 69.8 °F 74% 29.55 in 10.0 mi South 11.5 mph - N/A   Mostly Cloudy
6:45 PM 75.2 °F - 69.8 °F 83% 29.55 in 10.0 mi SSW 8.1 mph - N/A   Partly Cloudy
7:45 PM 75.2 °F - 69.8 °F 83% 29.55 in 10.0 mi SSW 9.2 mph - N/A   Clear
9:15 PM 73.4 °F - 66.2 °F 78% 29.58 in 10.0 mi South 10.4 mph - N/A   Clear
9:35 PM 73.4 °F - 68.0 °F 83% 29.57 in 10.0 mi South 8.1 mph - N/A   Clear
9:55 PM 71.6 °F - 68.0 °F 88% 29.57 in 10.0 mi South 4.6 mph - N/A   Clear
10:15 PM 71.6 °F - 68.0 °F 88% 29.57 in 8.0 mi SE 6.9 mph - N/A   Clear
10:35 PM 71.6 °F - 68.0 °F 88% 29.57 in 6.0 mi South 6.9 mph - N/A   Partly Cloudy
10:55 PM 71.6 °F - 68.0 °F 88% 29.58 in 5.0 mi SSE 9.2 mph - N/A   Scattered Clouds
11:15 PM 71.6 °F - 68.0 °F 88% 29.57 in 6.0 mi South 5.8 mph - N/A   Scattered Clouds
11:36 PM 71.6 °F - 66.2 °F 83% 29.57 in 6.0 mi South 4.6 mph - N/A   Clear
11:55 PM 71.6 °F - 66.2 °F 83% 29.57 in 5.0 mi South 4.6 mph - N/A   Clear